Estación Meteorológica Peña el Pijo (Robertgarden) [ 09/29/20 22:17:16 CEST ]

Fecha Hora Presion(HPa) Temp (°C) Humedad % Rocio (°C) Viento ( m/s) Direccion Lluvia 1Hora(mm) Lluvia 24H(mm) LLuvia Total(mm)
2020-Apr-17 01:09:26 1007.900 - - - - W     39.88
2020-Apr-17 02:08:58 1008.100 - - - - W     39.88
2020-Apr-17 03:09:07 1007.700 - - - - W     39.88
2020-Apr-17 04:09:06 1007.100 - - - - W     39.88
2020-Apr-17 05:09:08 1007.200 - - - - W     39.88
2020-Apr-17 06:09:07 1006.700 - - - - W     39.88
2020-Apr-17 07:10:29 1007.000 - - - - W     39.88
2020-Apr-17 08:10:39 1007.300 - - - - W     39.88
2020-Apr-17 09:09:53 1007.200 - - - - W     39.88
2020-Apr-17 10:09:42 1007.000 - - - - W     39.88
2020-Apr-17 11:09:12 1006.900 - - - - W     39.88
2020-Apr-17 12:09:22 1006.700 - - - - W     39.88
2020-Apr-17 13:09:05 1006.500 - - - - W     39.88
2020-Apr-17 14:09:03 1006.000 - - - - W     39.88
2020-Apr-17 15:09:10 1005.900 - - - - W     39.88
2020-Apr-17 16:09:07 1005.500 - - - - W     39.88
2020-Apr-17 17:09:29 1005.000 - - - - W     39.88
2020-Apr-17 18:09:21 1005.000 - - - - W     39.88
2020-Apr-17 19:09:19 1005.200 - - - - W     39.88
2020-Apr-17 20:09:21 1005.400 - - - - W     39.88
2020-Apr-17 21:09:11 1005.900 - - - - W     39.88
2020-Apr-17 22:08:49 1006.400 - - - - W     39.88
2020-Apr-17 23:08:49 1006.900 - - - - W     39.88

Temperatura Máxima:    Temperatura Mínima:
Presión Máxima:1008.100 Hpa    Presión Mínima:1005.000 Hpa


Volver